Location: Camp Crooked Creek
(37.9149°N, 85.6607°W)
Time: 02:03:34
(UTC-04:00)

Lacrosse 4 - Visible Passes

Search period start: 29 March 2015 00:00
Search period end: 08 April 2015 00:00
Orbit: 673 x 680 km, 68.0° (Epoch: 25 February)

Date Brightness Start Highest point End Pass type
(mag) Time Alt. Az. Time Alt. Az. Time Alt. Az.
29 Mar 4.8 05:52:52 10° NNE 05:54:50 13° NE 05:57:00 10° ENE visible
29 Mar 1.7 21:49:36 10° SSW 21:54:23 81° WNW 21:59:11 10° NNE visible
29 Mar 5.0 23:35:03 10° NW 23:36:03 10° NW 23:36:48 10° NW visible
30 Mar 3.7 06:26:39 10° N 06:30:55 32° NE 06:35:13 10° ESE visible
30 Mar 2.5 20:45:08 10° S 20:49:17 31° ESE 20:53:30 10° NE visible
30 Mar 3.8 22:25:58 10° WSW 22:30:04 27° NW 22:34:09 10° N visible
31 Mar 4.9 05:23:11 10° NNE 05:25:01 12° NE 05:27:05 10° ENE visible
31 Mar 1.7 07:01:45 10° NNW 07:06:32 84° WSW 07:11:18 10° SSE visible
31 Mar 1.8 21:19:49 10° SSW 21:24:36 83° WNW 21:29:24 10° NNE visible
31 Mar 5.0 23:04:59 10° WNW 23:06:14 11° NW 23:07:14 10° NNW visible
01 Apr 3.7 05:56:53 10° N 06:01:08 31° NE 06:05:24 10° ESE visible
01 Apr 3.8 21:56:08 10° WSW 22:00:17 28° NW 22:04:23 10° N visible
02 Apr 5.0 04:53:30 10° NNE 04:55:13 12° NE 04:57:10 10° ENE visible
02 Apr 1.7 06:31:57 10° NNW 06:36:45 87° WSW 06:41:31 10° SSE visible
02 Apr 1.8 20:50:02 10° SSW 20:54:49 85° WNW 20:59:36 10° NNE visible
02 Apr 5.0 22:35:00 10° WNW 22:36:25 11° NW 22:37:37 10° NNW visible
03 Apr 3.6 05:27:07 10° N 05:31:20 31° NE 05:35:34 10° ESE visible
03 Apr 3.9 21:26:18 10° WSW 21:30:29 29° NW 21:34:36 10° N visible
04 Apr 5.0 04:23:49 10° NNE 04:25:24 12° NE 04:27:13 10° ENE visible
04 Apr 1.7 06:02:10 10° NNW 06:06:58 89° WSW 06:11:43 10° SSE visible
04 Apr 5.0 22:05:01 10° WNW 22:06:37 11° NW 22:07:58 10° NNW visible
05 Apr 3.6 04:57:20 10° N 05:01:31 30° NE 05:05:44 10° ESE visible
05 Apr 2.6 06:38:10 10° NW 06:42:15 28° WSW 06:46:14 10° SSW visible
05 Apr 3.9 20:56:28 10° WSW 21:00:41 29° NW 21:04:50 10° N visible
06 Apr 4.9 03:54:08 10° NNE 03:55:35 11° NE 03:57:16 10° ENE visible
06 Apr 1.6 05:32:22 10° NNW 05:37:10 89° ENE 05:41:57 10° SSE visible
06 Apr 5.0 21:35:04 10° WNW 21:36:47 12° NW 21:38:19 10° NNW visible
07 Apr 3.6 04:27:34 10° N 04:31:43 29° NE 04:35:54 10° ESE visible
07 Apr 2.5 06:08:20 10° NW 06:12:28 29° WSW 06:16:29 10° SSW visible
